Tracking 25686 objects as of 26-May-2022
HD Live streaming from Space Station
objects crossing your sky now

COSMOS 2429

Track COSMOS 2429 now!
10-day predictions
COSMOS 2429 is classified as:


NORAD ID: 32052
Int'l Code: 2007-038A
Perigee: 959.8 km
Apogee: 1,018.1 km
Inclination: 83.0 °
Period: 104.7 minutes
Semi major axis: 7359 km
RCS: 1.582 m2 (large)
Launch date: September 11, 2007
Source: Commonwealth of Independent States (former USSR) (CIS)
Launch site: PLESETSK MISSILE AND SPACE COMPLEX (PKMTR)

The spacecraft is called Kosmos 2429 under the Russian Defense Ministry's naming system for military satellites
aabbcc
Your satellite tracking list
Your tracking list is empty




NASA's NSSDC Master Catalog

Two Line Element Set (TLE):
1 32052U 07038A   22145.74187480  .00000046  00000-0  31483-4 0  9996
2 32052  82.9826 219.0328 0039625  58.9881 301.5157 13.74960994737784
Source of the keplerian elements: AFSPC